Regional Weather Roundup
Issued by NWS Sterling, VA

Home | Current Version | Previous Version | Graphics & Text | Print | Product List | Glossary On
Versions: 1 2 3 4 5 6 7 8 9 10 11 12 13 14 15 16 17 18 19 20 21 22 23 24 25 26 27 28 29 30 31 32 33 34 35 36 37 38 39 40 41 42 43 44 45 46 47 48 49
000
ASUS41 KLWX 271910
RWRLWX

REGIONAL WEATHER ROUNDUP
NATIONAL WEATHER SERVICE BALTIMORE MD/WASHINGTON DC
300 PM EDT MON JUL 27 2015

Note: "FAIR" indicates few or no clouds below 12,000 feet
with no significant weather and/or obstructions to visibility.
 TC=TEMPERATURE CELSIUS

 * =Non NWS site. Station does not report precipitation (e.g. rain,
    snow, etc.), thunder, or fog.

DCZ001-MDZ009-015-VAZ040>042-051-053>054-272000-
WASHINGTON METRO

CITY           SKY/WX    TMP DP  RH WIND       PRES   REMARKS
WASHINGTON NAT PTSUNNY   88  72  58 VRB3      29.98S HX  94
DULLES         CLOUDY    84  72  67 S3        29.98F
ANDREWS AFB    PTSUNNY   84  72  67 NE9       29.98S HX  90
FT BELVOIR     MOSUNNY   84  73  68 S6        29.98R HX  90
QUANTICO       PTSUNNY   83  71  67 SE5       29.98S THUNDER
COLLEGE PARK*  CLOUDY    77  75  94 N3        29.99S VSB 3/4
LEESBURG*      PTSUNNY   86  73  66 NW6       29.99S THUNDER HX  93
GAITHERSBURG*  PTSUNNY   82  72  69 E3        30.03S

$$

MDZ006>007-011-014-272000-
BALTIMORE METRO

CITY           SKY/WX    TMP DP  RH WIND       PRES   REMARKS
BWI AIRPORT    CLOUDY    83  71  67 VRB3      29.98F
MD SCIENCE CTR   N/A     83  72  69 MISG      29.99F
MARTIN STATE   PTSUNNY   82  75  78 E6        30.00F
ANNAPOLIS      CLOUDY    79  73  82 SE14      29.98F
FORT MEADE*    CLOUDY    84  70  61 NE3       30.01S

$$

MDZ012-015-019>023-272000-
MARYLAND EASTERN SHORE

CITY           SKY/WX    TMP DP  RH WIND       PRES   REMARKS
OCEAN CITY     CLOUDY    81  71  71 VRB7      30.02F
SALISBURY      PTSUNNY   83  72  69 S7        30.00F
BAY BRIDGE AP*   N/A     82  70  65 SE9       29.99S
CAMBRIDGE*     MOSUNNY   82  70  65 S7        29.99F
EASTON*        PTSUNNY   86  72  62 S7        30.03F HX  92

$$

MDZ017>025-272000-
SOUTHERN MARYLAND

CITY           SKY/WX    TMP DP  RH WIND       PRES   REMARKS
PATUXENT RIVER PTSUNNY   83  73  72 SE8       29.98F
ST INIGOES     SUNNY     84  73  69 S5        29.98F HX  90
LEONARDTOWN*   CLOUDY    82  72  69 CALM      30.00S

$$

MDZ003>005-272000-
NORTH CENTRAL MARYLAND

CITY           SKY/WX    TMP DP  RH WIND       PRES   REMARKS
FREDERICK*     PTSUNNY   82  73  74 NE7       30.02F
HAGERSTOWN APT MOSUNNY   85  70  60 VRB6      29.99F
WESTMINSTER*   MOSUNNY   82  79  89 S3        30.01F HX  93

$$

MDZ501>502-272000-
WESTERN MARYLAND

CITY           SKY/WX    TMP DP  RH WIND       PRES   REMARKS
OAKLAND*       MOSUNNY   81  68  65 CALM      30.10F
CUMBERLAND*    SUNNY     90  64  43 W3        30.00F HX  91

$$

VAZ025>031-272000-
SHENANDOAH VALLEY

CITY           SKY/WX    TMP DP  RH WIND       PRES   REMARKS
WINCHESTER*    CLOUDY    84  70  61 S14       30.00R
FRONT ROYAL*   CLOUDY    72  70  94 NE9       30.00R
LURAY*         FAIR      82  73  74 E5        29.99S
NEW MARKET*    MOCLDY    82  73  74 N5        29.95F
STAUNTON*      PTSUNNY   89  67  47 CALM      30.00F HX  92
WAYNESBORO*    CLOUDY    82  71  69 S5        30.00F

$$

WVZ021-048>050-054>055-272000-
EASTERN WEST VIRGINIA PANHANDLE

CITY           SKY/WX    TMP DP  RH WIND       PRES   REMARKS
MARTINSBURG    SUNNY     86  71  60 E8        29.99F HX  91
PETERSBURG*    RAIN     N/A N/A N/A CALM      29.98F

$$

VAZ036>039-050-272000-
CENTRAL FOOTHILLS

CITY           SKY/WX    TMP DP  RH WIND       PRES   REMARKS
CHARLOTTESVILL PTSUNNY   85  74  69 E8        29.98F HX  92
CULPEPER*      PTSUNNY   81  73  76 CALM      30.00R
ORANGE*        PTSUNNY   82  73  74 SE3       30.00F
GORDONSVILLE*  MOCLDY    84  73  70 NE6       29.97F HX  91
WARRENTON*     FAIR      83  75  76 CALM      29.99R HX  91

$$

VAZ055>057-272000-
NORTH AND CENTRAL PIEDMONT

CITY           SKY/WX    TMP DP  RH WIND       PRES   REMARKS
FREDERICKSBRG* PTSUNNY   87  73  62 S3        29.97S HX  93
STAFFORD*      CLOUDY    84  68  58 S3        30.02S

$$

NCZ024-NYZ072-PAZ021-071-VAZ022-071-272000-
OTHER REGIONAL OBSERVATIONS

CITY           SKY/WX    TMP DP  RH WIND       PRES   REMARKS
NEW YORK CITY  MOSUNNY   84  68  58 VRB5      30.02F
PHILADELPHIA   PTSUNNY   84  68  58 SW7       30.00F
PITTSBURGH     MOSUNNY   85  62  46 VRB6      30.01F
ROANOKE        CLOUDY    85  69  58 CALM      30.03F
RICHMOND       PTSUNNY   87  71  58 S9        29.98F HX  93
RALEIGH        PTSUNNY   88  71  57 S3        29.99F HX  94

$$

ANZ530>537-272000-
MARINE OBSERVATIONS

STATION/POSITION TIME  TEMP    WIND        PRES
                       AIR SEA DIR/SP/G
                 (UTC) (F)     (DEG/KT/KT) (MB)
THOMAS PT LIGHT  NOT AVBL
BALT KEY BRIDGE  1800   80     110/  3/  4 1015.6F
COVE POINT       1800   79     180/ 12/ 15 1016.3F
LEWISETTA        1800   82 82  210/ 10/ 13 1015.3F
SOLOMONS ISLAND  1800      82                N/A

$$




USA.gov is the U.S. government's official web portal to all federal, state and local government web resources and services.